Regional Weather Roundup
Issued by NWS Cleveland, OH

Home | Current Version | Previous Version | Graphics & Text | Print | Product List | Glossary On
Versions: 1 2 3 4 5 6 7 8 9 10 11 12 13 14 15 16 17 18 19 20 21 22 23 24 25 26 27 28 29 30 31 32 33 34 35 36 37 38 39 40 41 42 43 44 45 46 47 48 49 50
000
ASUS41 KCLE 241010
RWRCLE
OHIO REGIONAL WEATHER ROUNDUP
NATIONAL WEATHER SERVICE CLEVELAND, OH
600 AM EDT FRI OCT 24 2014

NOTE: "FAIR" INDICATES FEW OR NO CLOUDS BELOW 12,000 FEET WITH NO
SIGNIFICANT WEATHER AND/OR OBSTRUCTIONS TO VISIBILITY.

OHZ001>008-015>018-024>027-034-035-043-044-241100-
   NORTHWEST OHIO

CITY           SKY/WX    TMP DP  RH WIND       PRES   REMARKS
DEFIANCE       CLEAR     35  33  92 S3        30.10R
FINDLAY        MOCLDY    39  37  92 S3        30.10R
TOLEDO EXPRESS MOCLDY    35  34  96 CALM      30.09S FOG
TOLEDO EXEC    MOCLDY    40  36  86 CALM      30.11S
LIMA           MOCLDY    40  36  86 CALM      30.10S
$$

OHZ009>014-019>023-028>033-038-089-241100-
   NORTHEAST OHIO

CITY           SKY/WX    TMP DP  RH WIND       PRES   REMARKS
CLE-HOPKINS    CLOUDY    39  36  89 S3        30.12S
CLE-LAKEFRONT  MOCLDY    43  38  82 S5        30.09S
CUY CO. ARPT   NOT AVBL
LORAIN-ELYRIA  CLOUDY    37  36  96 S3        30.10S
ASHTABULA      PTCLDY    36  35  96 CALM      30.09S FOG
AKRON-CANTON   CLOUDY    40  36  86 CALM      30.10R
WOOSTER        CLOUDY    37  34  89 CALM      30.11R FOG
MANSFIELD      MOCLDY    38  37  97 S5        30.11R
YOUNGSTOWN     PTCLDY    36  35  96 W3        30.08R
$$

OHZ042-051>053-060>062-070>072-077>081-241100-
  SOUTHWEST OHIO

CITY           SKY/WX    TMP DP  RH WIND       PRES   REMARKS
CINC-COVINGTON CLOUDY    43  40  89 S3        30.11F
CINC-LUNKEN    CLOUDY    42  41  96 CALM      30.14S FOG
HAMILTON       CLOUDY    39  38  96 CALM      30.13S
DAYTON         CLOUDY    45  40  82 CALM      30.12R
WRIGHT-PAT AFB MOCLDY    40  38  93 CALM      30.12S
DAYTON GENERAL MOCLDY    43  40  89 CALM      30.11S
WILMINGTON     MOCLDY    38  36  92 CALM      30.11S
$$

OHZ036-037-039>041-045>050-054>059-063>069-073>076-082>088-241100-
  CENTRAL AND SOUTHEAST OHIO

CITY           SKY/WX    TMP DP  RH WIND       PRES   REMARKS
COLUMBUS       CLOUDY    41  38  89 CALM      30.11S
OSU AIRPORT    CLOUDY    40  39  97 CALM      30.11R FOG
BOLTON FIELD   MOCLDY    38  38 100 MISG      30.12R FOG
RICKENBACK AFB MOCLDY    38  37  97 CALM      30.11S
NEWARK         FOG       35  33  92 CALM      30.11S VSB 3/4
MARION         CLOUDY    37  35  92 SE5       30.11S FOG
LANCASTER      MOCLDY    37  35  92 CALM      30.12R
ZANESVILLE     MOCLDY    35  34  96 CALM      30.11S
NEW PHILLY     FOG       37  36  96 CALM      30.12R VSB 3/4
$$



USA.gov is the U.S. government's official web portal to all federal, state and local government web resources and services.